Weather History for Buckeye, AZ

Change the Weather History Date:

Monday, December 23, 2013

  Actual Average (KGYR) Record (KGYR)
Temperature  
Mean Temperature 52 °F -  
Max Temperature 66 °F 63 °F 75 °F (2005)
Min Temperature 37 °F 38 °F 28 °F (1998)
Degree Days  
Heating Degree Days 14    
Growing Degree Days 2 (Base 50)    
Moisture  
Dew Point 36 °F    
Average Humidity 69    
Maximum Humidity 100    
Minimum Humidity 23    
Precipitation  
Precipitation 0.00 in - - ()
Sea Level Pressure  
Sea Level Pressure 30.30 in    
Wind  
Wind Speed 4 mph (NNW)    
Max Wind Speed 12 mph    
Max Gust Speed -    
Visibility 10 miles    
Events      
Averages and records for this station are not official NWS values.
T = Trace of Precipitation, MM = Missing Value Source: NWS Daily Summary

Daily Weather History Graph

Daily Weather History Graph

Search for Another Location

Airport:

Trip Planner

Search our weather history database for the weather conditions in past years. The results will help you decide how hot, cold, wet, or windy it might be!

Date:

Astronomy

Dec. 23, 2013 Rise Set
Actual Time 7:31 AM MST 5:28 PM MST
Civil Twilight 7:04 AM MST 5:55 PM MST
Nautical Twilight 6:33 AM MST 6:26 PM MST
Astronomical Twilight 6:02 AM MST 6:57 PM MST
Moon 11:24 PM MST (12/23) 11:14 AM MST (12/23)
Length of Visible Light 10h 51m
Length of Day
9h 56m
Waning Gibbous, 67% of the Moon is Illuminated
Dec 23
Waning Gibbous
Dec 25
Last Quarter
Jan 1
New
Jan 7
First Quarter
Jan 15
Full

Hourly Weather History & Observations

Time (MST) Temp. Windchill Dew Point Humidity Pressure Visibility Wind Dir Wind Speed Gust Speed Precip Events Conditions
12:15 AM 41.0 °F 37.1 °F 41.0 °F 100% 30.28 in 10.0 mi North 5.8 mph - N/A   Clear
12:35 AM 41.0 °F 38.0 °F 41.0 °F 100% 30.28 in 10.0 mi NNW 4.6 mph - N/A   Clear
12:55 AM 41.0 °F - 41.0 °F 100% 30.28 in 10.0 mi Calm Calm - N/A   Clear
1:15 AM 41.0 °F 37.1 °F 41.0 °F 100% 30.29 in 10.0 mi North 5.8 mph - N/A   Clear
1:35 AM 41.0 °F 38.0 °F 41.0 °F 100% 30.29 in 10.0 mi NW 4.6 mph - N/A   Clear
1:55 AM 41.0 °F 38.0 °F 41.0 °F 100% 30.29 in 10.0 mi NW 4.6 mph - N/A   Clear
2:15 AM 41.0 °F - 41.0 °F 100% 30.29 in 10.0 mi Calm Calm - N/A   Clear
2:35 AM 39.2 °F 35.0 °F 39.2 °F 100% 30.30 in 10.0 mi NW 5.8 mph - N/A   Clear
2:55 AM 39.2 °F 37.0 °F 39.2 °F 100% 30.30 in 10.0 mi NNW 3.5 mph - N/A   Clear
3:15 AM 39.2 °F - 39.2 °F 100% 30.30 in 10.0 mi Calm Calm - N/A   Clear
3:35 AM 39.2 °F - 39.2 °F 100% 30.31 in 10.0 mi Calm Calm - N/A   Clear
3:55 AM 37.4 °F - 37.4 °F 100% 30.31 in 10.0 mi Calm Calm - N/A   Clear
4:15 AM 37.4 °F - 37.4 °F 100% 30.30 in 10.0 mi Calm Calm - N/A   Clear
4:35 AM 37.4 °F 32.8 °F 37.4 °F 100% 30.30 in 10.0 mi NNW 5.8 mph - N/A   Clear
4:55 AM 37.4 °F 31.4 °F 37.4 °F 100% 30.31 in 10.0 mi North 8.1 mph - N/A   Clear
5:15 AM 37.4 °F 32.1 °F 37.4 °F 100% 30.31 in 10.0 mi NNW 6.9 mph - N/A   Clear
5:35 AM 37.4 °F 32.8 °F 37.4 °F 100% 30.32 in 10.0 mi North 5.8 mph - N/A   Clear
5:55 AM 37.4 °F 32.1 °F 37.4 °F 100% 30.32 in 10.0 mi North 6.9 mph - N/A   Clear
6:15 AM 37.4 °F 32.8 °F 37.4 °F 100% 30.33 in 10.0 mi North 5.8 mph - N/A   Clear
6:35 AM 37.4 °F 30.3 °F 37.4 °F 100% 30.33 in 10.0 mi North 10.4 mph - N/A   Clear
6:55 AM 39.2 °F 33.6 °F 39.2 °F 100% 30.34 in 10.0 mi North 8.1 mph - N/A   Clear
7:15 AM 39.2 °F 34.2 °F 39.2 °F 100% 30.35 in 10.0 mi North 6.9 mph - N/A   Clear
7:35 AM 41.0 °F 35.8 °F 39.2 °F 93% 30.35 in 10.0 mi North 8.1 mph - N/A   Clear
7:55 AM 41.0 °F 37.1 °F 37.4 °F 87% 30.36 in 10.0 mi North 5.8 mph - N/A   Clear
8:15 AM 41.0 °F 39.0 °F 39.2 °F 93% 30.36 in 10.0 mi NE 3.5 mph - N/A   Clear
8:35 AM 41.0 °F - 39.2 °F 93% 30.36 in 10.0 mi Calm Calm - N/A   Clear
8:55 AM 42.8 °F - 41.0 °F 93% 30.37 in 10.0 mi Calm Calm - N/A   Clear
9:15 AM 44.6 °F - 41.0 °F 87% 30.37 in 10.0 mi Calm Calm - N/A   Clear
9:35 AM 46.4 °F - 39.2 °F 76% 30.38 in 10.0 mi Calm Calm - N/A   Clear
9:55 AM 48.2 °F - 37.4 °F 66% 30.38 in 10.0 mi Calm Calm - N/A   Clear
10:15 AM 48.2 °F - 37.4 °F 66% 30.39 in 10.0 mi South 3.5 mph - N/A   Clear
10:35 AM 50.0 °F - 39.2 °F 66% 30.39 in 10.0 mi Calm Calm - N/A   Clear
10:55 AM 50.0 °F - 37.4 °F 62% 30.40 in 10.0 mi SW 3.5 mph - N/A   Clear
11:15 AM 53.6 °F - 37.4 °F 54% 30.39 in 10.0 mi SSW 3.5 mph - N/A   Clear
11:35 AM 53.6 °F - 37.4 °F 54% 30.38 in 10.0 mi Calm Calm - N/A   Clear
11:55 AM 55.4 °F - 33.8 °F 44% 30.37 in 10.0 mi SW 3.5 mph - N/A   Clear
12:15 PM 57.2 °F - 35.6 °F 44% 30.36 in 10.0 mi WSW 3.5 mph - N/A   Clear
12:35 PM 59.0 °F - 35.6 °F 42% 30.34 in 10.0 mi Calm Calm - N/A   Clear
12:55 PM 60.8 °F - 35.6 °F 39% 30.33 in 10.0 mi Calm Calm - N/A   Clear
1:15 PM 62.6 °F - 33.8 °F 34% 30.32 in 10.0 mi SSW 3.5 mph - N/A   Clear
1:35 PM 62.6 °F - 33.8 °F 34% 30.31 in 10.0 mi North 3.5 mph - N/A   Clear
1:55 PM 62.6 °F - 30.2 °F 30% 30.31 in 10.0 mi Calm Calm - N/A   Clear
2:15 PM 64.4 °F - 30.2 °F 28% 30.30 in 10.0 mi West 3.5 mph - N/A   Clear
2:35 PM 64.4 °F - 28.4 °F 26% 30.29 in 10.0 mi Calm Calm - N/A   Clear
2:55 PM 66.2 °F - 28.4 °F 24% 30.29 in 10.0 mi NNW 3.5 mph - N/A   Clear
3:15 PM 66.2 °F - 26.6 °F 23% 30.28 in 10.0 mi Calm Calm - N/A   Clear
3:35 PM 66.2 °F - 26.6 °F 23% 30.28 in 10.0 mi Calm Calm - N/A   Clear
3:55 PM 66.2 °F - 26.6 °F 23% 30.28 in 10.0 mi WNW 3.5 mph - N/A   Clear
4:15 PM 66.2 °F - 26.6 °F 23% 30.28 in 10.0 mi Calm Calm - N/A   Clear
4:35 PM 66.2 °F - 28.4 °F 24% 30.27 in 10.0 mi Calm Calm - N/A   Clear
4:55 PM 66.2 °F - 26.6 °F 23% 30.27 in 10.0 mi Calm Calm - N/A   Clear
5:15 PM 64.4 °F - 32.0 °F 30% 30.27 in 10.0 mi Calm Calm - N/A   Clear
5:35 PM 62.6 °F - 32.0 °F 32% 30.27 in 10.0 mi NW 3.5 mph - N/A   Clear
5:55 PM 57.2 °F - 37.4 °F 48% 30.27 in 10.0 mi NW 3.5 mph - N/A   Clear
6:15 PM 57.2 °F - 35.6 °F 44% 30.27 in 10.0 mi NNE 3.5 mph - N/A   Clear
6:35 PM 55.4 °F - 35.6 °F 47% 30.26 in 10.0 mi North 4.6 mph - N/A   Clear
6:55 PM 53.6 °F - 35.6 °F 51% 30.26 in 10.0 mi North 4.6 mph - N/A   Clear
7:15 PM 50.0 °F - 37.4 °F 62% 30.26 in 10.0 mi North 9.2 mph - N/A   Clear
7:35 PM 51.8 °F - 35.6 °F 54% 30.26 in 10.0 mi North 8.1 mph - N/A   Clear
7:55 PM 50.0 °F - 37.4 °F 62% 30.26 in 10.0 mi NNW 6.9 mph - N/A   Clear
8:15 PM 48.2 °F - 37.4 °F 66% 30.26 in 10.0 mi NNW 8.1 mph - N/A   Clear
8:35 PM 48.2 °F - 37.4 °F 66% 30.26 in 10.0 mi North 8.1 mph - N/A   Clear
8:55 PM 48.2 °F - 37.4 °F 66% 30.26 in 10.0 mi NNW 8.1 mph - N/A   Clear
9:15 PM 48.2 °F - 37.4 °F 66% 30.26 in 10.0 mi North 8.1 mph - N/A   Clear
9:35 PM 46.4 °F 42.9 °F 37.4 °F 71% 30.26 in 10.0 mi North 6.9 mph - N/A   Clear
9:55 PM 46.4 °F 41.9 °F 37.4 °F 71% 30.26 in 10.0 mi NNW 9.2 mph - N/A   Clear
10:15 PM 48.2 °F - 37.4 °F 66% 30.26 in 10.0 mi NNW 9.2 mph - N/A   Clear
10:35 PM 46.4 °F 42.4 °F 37.4 °F 71% 30.25 in 10.0 mi NNW 8.1 mph - N/A   Clear
10:55 PM 46.4 °F 43.5 °F 39.2 °F 76% 30.26 in 10.0 mi North 5.8 mph - N/A   Clear
11:15 PM 44.6 °F 40.7 °F 39.2 °F 81% 30.25 in 10.0 mi NNW 6.9 mph - N/A   Clear
11:35 PM 46.4 °F 42.4 °F 35.6 °F 66% 30.25 in 10.0 mi North 8.1 mph - N/A   Clear
11:55 PM 48.2 °F - 35.6 °F 62% 30.24 in 10.0 mi North 11.5 mph - N/A   Clear